Location: Unspecified
(0.0000°N, 0.0000°E)
Time: 15:13:53
(UTC+00:00)

A-11 Canister half - Pass Details

Date: 28 May 2026
Orbit: 1524 x 1684 km, 47.3° (Epoch: 7 June)

Event Time Altitude Azimuth Distance (km) Brightness Sun altitude
Rises 21:25:20 0° 330° (NNW) 4,848 12.2 -47.1°
Reaches altitude 10° 21:28:33 10° 335° (NNW) 3,881 11.5 -47.8°
Enters shadow 21:33:37 33° 351° (N) 2,524 10.2 -48.8°
Maximum altitude 21:38:14 55° 51° (NE) 1,948 - -49.8°
Drops below altitude 10° 21:48:05 10° 126° (SE) 3,945 - -51.8°
Sets 21:51:20 0° 130° (SE) 4,932 - -52.4°
